Time,TemperatureF,DewpointF,PressureIn,WindDirection,WindDirectionDegrees,WindSpeedMPH,WindSpeedGustMPH,Humidity,HourlyPrecipIn,Conditions,Clouds,dailyrainin,SoftwareType,DateUTC
2013-06-18 00:00:00,64.2,51.2,29.97,SSW,202,0.0,0.0,62,0.00,,,0.00,WUHU21623XXSP,2013-06-18 04:00:00,
2013-06-18 00:01:00,64.2,51.2,29.97,SSW,202,0.0,0.0,62,0.00,,,0.00,WUHU21623XXSP,2013-06-18 04:01:00,
2013-06-18 00:02:00,64.2,51.2,29.97,SSW,202,0.0,0.0,62,0.00,,,0.00,WUHU21623XXSP,2013-06-18 04:02:00,
2013-06-18 00:07:00,64.2,51.2,29.97,SSW,202,0.0,0.0,62,0.00,,,0.00,WUHU21623XXSP,2013-06-18 04:07:00,
2013-06-18 00:12:00,64.2,51.2,29.97,SSW,202,0.0,0.0,62,0.00,,,0.00,WUHU21623XXSP,2013-06-18 04:12:00,
2013-06-18 00:17:00,64.2,51.2,29.98,SSW,202,0.0,0.0,62,0.00,,,0.00,WUHU21623XXSP,2013-06-18 04:17:00,
2013-06-18 00:22:00,64.2,51.2,29.97,SSW,202,0.0,0.0,62,0.00,,,0.00,WUHU21623XXSP,2013-06-18 04:22:00,
2013-06-18 00:27:00,64.2,51.2,29.97,SSW,202,0.0,0.0,62,0.00,,,0.00,WUHU21623XXSP,2013-06-18 04:27:00,
2013-06-18 00:32:00,64.2,51.2,29.97,SSW,202,0.0,0.0,62,0.00,,,0.00,WUHU21623XXSP,2013-06-18 04:32:00,
2013-06-18 00:37:00,64.2,51.2,29.97,SSW,202,0.0,0.0,62,0.00,,,0.00,WUHU21623XXSP,2013-06-18 04:37:00,
2013-06-18 00:43:00,64.2,51.2,29.97,SSW,202,0.0,0.0,62,0.00,,,0.00,WUHU21623XXSP,2013-06-18 04:43:00,
2013-06-18 00:48:00,64.2,51.2,29.97,SSW,202,0.0,0.0,62,0.00,,,0.00,WUHU21623XXSP,2013-06-18 04:48:00,
2013-06-18 00:53:00,64.2,51.2,29.97,SSW,202,0.0,0.0,62,0.00,,,0.00,WUHU21623XXSP,2013-06-18 04:53:00,
2013-06-18 00:59:00,64.0,51.1,29.97,SSW,202,0.0,0.0,62,0.00,,,0.00,WUHU21623XXSP,2013-06-18 04:59:00,
2013-06-18 01:05:00,64.0,51.1,29.96,SSW,202,0.0,0.0,62,0.00,,,0.00,WUHU21623XXSP,2013-06-18 05:05:00,
2013-06-18 01:10:00,64.0,51.1,29.96,SSW,202,0.0,0.0,62,0.00,,,0.00,WUHU21623XXSP,2013-06-18 05:10:00,
2013-06-18 01:15:00,64.0,51.1,29.96,SSW,202,0.0,0.0,62,0.00,,,0.00,WUHU21623XXSP,2013-06-18 05:15:00,
2013-06-18 01:21:00,63.9,51.0,29.95,SSW,202,0.0,0.0,62,0.00,,,0.00,WUHU21623XXSP,2013-06-18 05:21:00,
2013-06-18 01:26:00,63.7,50.8,29.95,SSW,202,0.0,0.0,62,0.00,,,0.00,WUHU21623XXSP,2013-06-18 05:26:00,
2013-06-18 01:31:00,63.7,50.8,29.95,SSW,202,0.0,0.0,62,0.00,,,0.00,WUHU21623XXSP,2013-06-18 05:31:00,
2013-06-18 01:36:00,63.5,50.6,29.94,SSW,202,0.0,0.0,62,0.00,,,0.00,WUHU21623XXSP,2013-06-18 05:36:00,
2013-06-18 01:41:00,63.5,50.9,29.95,SSW,202,0.0,0.0,63,0.00,,,0.00,WUHU21623XXSP,2013-06-18 05:41:00,
2013-06-18 01:46:00,63.3,50.7,29.95,SSW,202,0.0,0.0,63,0.00,,,0.00,WUHU21623XXSP,2013-06-18 05:46:00,
2013-06-18 01:51:00,63.3,50.7,29.95,SSW,202,0.0,0.0,63,0.00,,,0.00,WUHU21623XXSP,2013-06-18 05:51:00,
2013-06-18 01:56:00,63.1,50.5,29.95,SSW,202,0.0,0.0,63,0.00,,,0.00,WUHU21623XXSP,2013-06-18 05:56:00,
2013-06-18 02:01:00,63.1,50.5,29.94,SSW,202,0.0,0.0,63,0.00,,,0.00,WUHU21623XXSP,2013-06-18 06:01:00,
2013-06-18 02:06:00,63.1,50.5,29.94,SSW,202,0.0,0.0,63,0.00,,,0.00,WUHU21623XXSP,2013-06-18 06:06:00,
2013-06-18 02:11:00,63.0,50.8,29.94,SSW,202,0.0,0.0,64,0.00,,,0.00,WUHU21623XXSP,2013-06-18 06:11:00,
2013-06-18 02:16:00,63.0,50.8,29.94,SSW,202,0.0,0.0,64,0.00,,,0.00,WUHU21623XXSP,2013-06-18 06:16:00,
2013-06-18 02:21:00,62.8,50.6,29.94,SSW,202,0.0,0.0,64,0.00,,,0.00,WUHU21623XXSP,2013-06-18 06:21:00,
2013-06-18 02:26:00,62.8,50.6,29.94,SSW,202,0.0,0.0,64,0.00,,,0.00,WUHU21623XXSP,2013-06-18 06:26:00,
2013-06-18 02:31:00,62.6,50.4,29.94,SSW,202,0.0,0.0,64,0.00,,,0.00,WUHU21623XXSP,2013-06-18 06:31:00,
2013-06-18 02:36:00,62.4,50.2,29.94,SSW,202,0.0,0.0,64,0.00,,,0.00,WUHU21623XXSP,2013-06-18 06:36:00,
2013-06-18 02:41:00,62.4,50.2,29.94,SSW,202,0.0,0.0,64,0.00,,,0.00,WUHU21623XXSP,2013-06-18 06:41:00,
2013-06-18 02:46:00,62.4,50.6,29.94,SSW,202,0.0,0.0,65,0.00,,,0.00,WUHU21623XXSP,2013-06-18 06:46:00,
2013-06-18 02:51:00,62.4,50.6,29.93,SSW,202,0.0,0.0,65,0.00,,,0.00,WUHU21623XXSP,2013-06-18 06:51:00,
2013-06-18 02:56:00,62.4,50.6,29.93,SSW,202,0.0,0.0,65,0.00,,,0.00,WUHU21623XXSP,2013-06-18 06:56:00,
2013-06-18 03:01:00,62.4,50.6,29.93,SSW,202,0.0,0.0,65,0.00,,,0.00,WUHU21623XXSP,2013-06-18 07:01:00,
2013-06-18 03:06:00,62.4,50.6,29.93,SSW,202,0.0,0.0,65,0.00,,,0.00,WUHU21623XXSP,2013-06-18 07:06:00,
2013-06-18 03:11:00,62.4,50.6,29.93,SSW,202,0.0,0.0,65,0.00,,,0.00,WUHU21623XXSP,2013-06-18 07:11:00,
2013-06-18 03:16:00,62.4,50.6,29.93,SSW,202,0.0,0.0,65,0.00,,,0.00,WUHU21623XXSP,2013-06-18 07:16:00,
2013-06-18 03:21:00,62.4,50.6,29.92,SSW,202,0.0,0.0,65,0.00,,,0.00,WUHU21623XXSP,2013-06-18 07:21:00,
2013-06-18 03:25:00,62.4,50.6,29.92,SSW,202,0.0,0.0,65,0.00,,,0.00,WUHU21623XXSP,2013-06-18 07:25:00,
2013-06-18 03:37:00,62.4,50.6,29.92,SSW,202,0.0,0.0,65,0.00,,,0.00,WUHU21623XXSP,2013-06-18 07:37:00,
2013-06-18 03:44:00,62.4,50.6,29.92,SSW,202,0.0,0.0,65,0.00,,,0.00,WUHU21623XXSP,2013-06-18 07:44:00,
2013-06-18 03:50:00,62.4,50.6,29.92,SSW,202,0.0,0.0,65,0.00,,,0.00,WUHU21623XXSP,2013-06-18 07:50:00,
2013-06-18 03:55:00,62.4,50.6,29.92,SSW,202,0.0,0.0,65,0.00,,,0.00,WUHU21623XXSP,2013-06-18 07:55:00,
2013-06-18 04:02:00,62.4,50.2,29.92,SSW,202,0.0,0.0,64,0.00,,,0.00,WUHU21623XXSP,2013-06-18 08:02:00,
2013-06-18 04:07:00,62.4,50.2,29.92,SSW,202,0.0,0.0,64,0.00,,,0.00,WUHU21623XXSP,2013-06-18 08:07:00,
2013-06-18 04:12:00,62.4,50.2,29.93,SSW,202,0.0,0.0,64,0.00,,,0.00,WUHU21623XXSP,2013-06-18 08:12:00,
2013-06-18 04:18:00,62.2,50.0,29.93,SSW,202,0.0,0.0,64,0.00,,,0.00,WUHU21623XXSP,2013-06-18 08:18:00,
2013-06-18 04:24:00,62.2,50.4,29.93,SSW,202,0.0,0.0,65,0.00,,,0.00,WUHU21623XXSP,2013-06-18 08:24:00,
2013-06-18 04:29:00,62.2,50.4,29.93,SSW,202,0.0,0.0,65,0.00,,,0.00,WUHU21623XXSP,2013-06-18 08:29:00,
2013-06-18 04:34:00,62.1,50.3,29.93,SSW,202,0.0,0.0,65,0.00,,,0.00,WUHU21623XXSP,2013-06-18 08:34:00,
2013-06-18 04:39:00,62.1,50.3,29.93,SSW,202,0.0,0.0,65,0.00,,,0.00,WUHU21623XXSP,2013-06-18 08:39:00,
2013-06-18 04:44:00,61.9,50.1,29.93,SSW,202,0.0,0.0,65,0.00,,,0.00,WUHU21623XXSP,2013-06-18 08:44:00,
2013-06-18 04:49:00,61.9,50.1,29.92,SSW,202,0.0,0.0,65,0.00,,,0.00,WUHU21623XXSP,2013-06-18 08:49:00,
2013-06-18 04:54:00,61.9,50.1,29.92,SSW,202,0.0,0.0,65,0.00,,,0.00,WUHU21623XXSP,2013-06-18 08:54:00,
2013-06-18 04:59:00,61.9,50.1,29.92,SSW,202,0.0,0.0,65,0.00,,,0.00,WUHU21623XXSP,2013-06-18 08:59:00,
2013-06-18 05:04:00,62.1,50.3,29.92,SSW,202,0.0,0.0,65,0.00,,,0.00,WUHU21623XXSP,2013-06-18 09:04:00,
2013-06-18 05:09:00,62.1,50.3,29.93,SSW,202,0.0,0.0,65,0.00,,,0.00,WUHU21623XXSP,2013-06-18 09:09:00,
2013-06-18 05:14:00,62.2,50.4,29.93,SSW,202,0.0,0.0,65,0.00,,,0.00,WUHU21623XXSP,2013-06-18 09:14:00,
2013-06-18 05:19:00,62.1,50.3,29.92,SSW,202,0.0,0.0,65,0.00,,,0.00,WUHU21623XXSP,2013-06-18 09:19:00,
2013-06-18 05:24:00,61.9,50.1,29.93,SSW,202,0.0,0.0,65,0.00,,,0.00,WUHU21623XXSP,2013-06-18 09:24:00,
2013-06-18 05:29:00,61.9,50.4,29.93,SSW,202,0.0,0.0,66,0.00,,,0.00,WUHU21623XXSP,2013-06-18 09:29:00,
2013-06-18 05:35:00,61.5,50.0,29.94,SSW,202,0.0,0.0,66,0.00,,,0.00,WUHU21623XXSP,2013-06-18 09:35:00,
2013-06-18 05:40:00,61.3,49.8,29.94,SSW,202,0.0,0.0,66,0.00,,,0.00,WUHU21623XXSP,2013-06-18 09:40:00,
2013-06-18 05:45:00,61.3,50.2,29.94,SSW,202,0.0,0.0,66,0.00,,,0.00,WUHU21623XXSP,2013-06-18 09:45:00,
2013-06-18 05:51:00,61.3,50.2,29.94,SSW,202,0.0,0.0,66,0.00,,,0.00,WUHU21623XXSP,2013-06-18 09:51:00,
2013-06-18 05:56:00,61.2,50.1,29.94,SSW,202,0.0,0.0,66,0.00,,,0.00,WUHU21623XXSP,2013-06-18 09:56:00,
2013-06-18 06:01:00,61.2,50.1,29.95,SSW,202,0.0,0.0,66,0.00,,,0.00,WUHU21623XXSP,2013-06-18 10:01:00,
2013-06-18 06:07:00,61.2,50.1,29.94,SSW,202,0.0,0.0,66,0.00,,,0.00,WUHU21623XXSP,2013-06-18 10:07:00,
2013-06-18 06:13:00,61.2,50.4,29.95,SSW,202,0.0,0.0,67,0.00,,,0.00,WUHU21623XXSP,2013-06-18 10:13:00,
2013-06-18 06:18:00,61.2,50.4,29.95,SSW,202,0.0,0.0,67,0.00,,,0.00,WUHU21623XXSP,2013-06-18 10:18:00,
2013-06-18 06:25:00,61.0,50.2,29.94,SSW,202,0.0,0.0,67,0.00,,,0.00,WUHU21623XXSP,2013-06-18 10:25:00,
2013-06-18 06:30:00,61.3,50.5,29.95,SSW,202,0.0,0.0,67,0.00,,,0.00,WUHU21623XXSP,2013-06-18 10:30:00,
2013-06-18 06:35:00,61.3,50.5,29.94,SSW,202,0.0,0.0,67,0.00,,,0.00,WUHU21623XXSP,2013-06-18 10:35:00,
2013-06-18 06:40:00,61.3,50.8,29.94,SSW,202,0.0,0.0,68,0.00,,,0.00,WUHU21623XXSP,2013-06-18 10:40:00,
2013-06-18 06:45:00,61.5,51.0,29.94,SSW,202,0.0,0.0,68,0.00,,,0.00,WUHU21623XXSP,2013-06-18 10:45:00,
2013-06-18 06:51:00,61.3,50.8,29.95,SSW,202,0.0,0.0,68,0.00,,,0.00,WUHU21623XXSP,2013-06-18 10:51:00,
2013-06-18 06:56:00,61.5,51.0,29.94,SSW,202,0.0,0.0,68,0.00,,,0.00,WUHU21623XXSP,2013-06-18 10:56:00,
2013-06-18 07:01:00,61.9,51.1,29.94,SSW,202,0.0,0.0,67,0.00,,,0.00,WUHU21623XXSP,2013-06-18 11:01:00,
2013-06-18 07:06:00,62.1,51.2,29.94,SSW,202,0.0,0.0,67,0.00,,,0.00,WUHU21623XXSP,2013-06-18 11:06:00,
2013-06-18 07:11:00,62.4,51.5,29.94,SSW,202,0.0,0.0,67,0.00,,,0.00,WUHU21623XXSP,2013-06-18 11:11:00,
2013-06-18 07:16:00,62.4,51.2,29.94,SSW,202,0.0,0.0,66,0.00,,,0.00,WUHU21623XXSP,2013-06-18 11:16:00,
2013-06-18 07:21:00,62.8,51.6,29.94,SSW,202,0.0,0.0,66,0.00,,,0.00,WUHU21623XXSP,2013-06-18 11:21:00,
2013-06-18 07:26:00,63.0,51.5,29.94,SSW,202,0.0,0.0,66,0.00,,,0.00,WUHU21623XXSP,2013-06-18 11:26:00,
2013-06-18 07:31:00,63.1,51.6,29.94,SSW,202,0.0,0.0,66,0.00,,,0.00,WUHU21623XXSP,2013-06-18 11:31:00,
2013-06-18 07:37:00,63.5,51.6,29.94,ENE,67,0.0,0.0,65,0.00,,,0.00,WUHU21623XXSP,2013-06-18 11:37:00,
2013-06-18 07:42:00,63.7,51.5,29.94,ENE,67,0.0,0.0,64,0.00,,,0.00,WUHU21623XXSP,2013-06-18 11:42:00,
2013-06-18 07:48:00,64.0,51.4,29.94,ENE,67,0.0,0.0,63,0.00,,,0.00,WUHU21623XXSP,2013-06-18 11:48:00,
2013-06-18 07:53:00,64.2,51.2,29.94,ENE,67,2.5,2.5,62,0.00,,,0.00,WUHU21623XXSP,2013-06-18 11:53:00,
2013-06-18 07:58:00,64.2,51.2,29.94,ENE,67,0.0,2.5,62,0.00,,,0.00,WUHU21623XXSP,2013-06-18 11:58:00,
2013-06-18 08:03:00,64.6,51.3,29.94,NE,45,2.0,2.0,62,0.00,,,0.00,WUHU21623XXSP,2013-06-18 12:03:00,
2013-06-18 08:08:00,64.9,51.6,29.94,NE,45,0.0,2.0,62,0.00,,,0.00,WUHU21623XXSP,2013-06-18 12:08:00,
2013-06-18 08:13:00,65.1,51.7,29.94,NNE,22,1.3,1.3,62,0.00,,,0.00,WUHU21623XXSP,2013-06-18 12:13:00,
2013-06-18 08:18:00,65.1,51.4,29.94,NE,45,0.0,1.3,61,0.00,,,0.00,WUHU21623XXSP,2013-06-18 12:18:00,
2013-06-18 08:23:00,65.5,51.4,29.94,ENE,67,0.0,0.0,60,0.00,,,0.00,WUHU21623XXSP,2013-06-18 12:23:00,
2013-06-18 08:28:00,65.5,51.0,29.94,ENE,67,0.0,0.0,59,0.00,,,0.00,WUHU21623XXSP,2013-06-18 12:28:00,
2013-06-18 08:33:00,65.8,51.3,29.94,ENE,67,0.0,0.0,59,0.00,,,0.00,WUHU21623XXSP,2013-06-18 12:33:00,
2013-06-18 08:38:00,66.0,51.5,29.94,NE,45,0.0,1.1,59,0.00,,,0.00,WUHU21623XXSP,2013-06-18 12:38:00,
2013-06-18 08:43:00,66.0,51.1,29.94,NNE,22,0.0,1.1,58,0.00,,,0.00,WUHU21623XXSP,2013-06-18 12:43:00,
2013-06-18 08:48:00,66.2,51.3,29.94,ENE,67,0.0,0.2,58,0.00,,,0.00,WUHU21623XXSP,2013-06-18 12:48:00,
2013-06-18 08:53:00,66.6,51.7,29.94,ENE,67,0.0,0.0,58,0.00,,,0.00,WUHU21623XXSP,2013-06-18 12:53:00,
2013-06-18 08:59:00,66.7,51.8,29.94,NE,45,0.0,0.0,58,0.00,,,0.00,WUHU21623XXSP,2013-06-18 12:59:00,
2013-06-18 09:04:00,67.1,51.8,29.94,NE,45,0.0,0.7,58,0.00,,,0.00,WUHU21623XXSP,2013-06-18 13:04:00,
2013-06-18 09:09:00,67.6,52.3,29.94,NE,45,0.0,0.0,58,0.00,,,0.00,WUHU21623XXSP,2013-06-18 13:09:00,
2013-06-18 09:14:00,67.8,52.4,29.94,NE,45,0.0,0.0,58,0.00,,,0.00,WUHU21623XXSP,2013-06-18 13:14:00,
2013-06-18 09:20:00,68.2,52.4,29.94,NE,45,0.0,0.0,57,0.00,,,0.00,WUHU21623XXSP,2013-06-18 13:20:00,
2013-06-18 09:25:00,68.4,52.6,29.94,NE,45,0.0,0.0,57,0.00,,,0.00,WUHU21623XXSP,2013-06-18 13:25:00,
2013-06-18 09:30:00,68.5,52.7,29.94,ENE,67,0.0,0.0,57,0.00,,,0.00,WUHU21623XXSP,2013-06-18 13:30:00,
2013-06-18 09:35:00,68.7,52.9,29.94,ENE,67,0.0,0.0,57,0.00,,,0.00,WUHU21623XXSP,2013-06-18 13:35:00,
2013-06-18 09:40:00,68.7,52.9,29.94,ENE,67,0.0,0.0,57,0.00,,,0.00,WUHU21623XXSP,2013-06-18 13:40:00,
2013-06-18 09:45:00,68.9,53.1,29.94,ENE,67,0.0,0.0,57,0.00,,,0.00,WUHU21623XXSP,2013-06-18 13:45:00,
2013-06-18 09:50:00,69.1,53.3,29.94,ENE,67,0.0,0.0,57,0.00,,,0.00,WUHU21623XXSP,2013-06-18 13:50:00,
2013-06-18 09:55:00,69.4,53.9,29.93,ENE,67,0.0,0.0,58,0.00,,,0.00,WUHU21623XXSP,2013-06-18 13:55:00,
2013-06-18 10:00:00,69.6,54.5,29.93,ENE,67,0.0,0.0,58,0.00,,,0.00,WUHU21623XXSP,2013-06-18 14:00:00,
2013-06-18 10:05:00,69.8,54.3,29.94,ENE,67,0.0,0.0,58,0.00,,,0.00,WUHU21623XXSP,2013-06-18 14:05:00,
2013-06-18 10:10:00,70.0,54.1,29.93,ENE,67,0.0,0.0,57,0.00,,,0.00,WUHU21623XXSP,2013-06-18 14:10:00,
2013-06-18 10:15:00,70.2,54.3,29.94,ENE,67,0.0,0.0,57,0.00,,,0.00,WUHU21623XXSP,2013-06-18 14:15:00,
2013-06-18 10:20:00,70.2,54.3,29.94,ENE,67,0.0,0.0,57,0.00,,,0.00,WUHU21623XXSP,2013-06-18 14:20:00,
2013-06-18 10:25:00,70.3,54.4,29.94,ENE,67,0.0,0.0,57,0.00,,,0.00,WUHU21623XXSP,2013-06-18 14:25:00,
2013-06-18 10:30:00,70.3,54.4,29.93,ENE,67,0.0,0.0,57,0.00,,,0.00,WUHU21623XXSP,2013-06-18 14:30:00,
2013-06-18 10:35:00,70.3,54.4,29.93,ENE,67,0.0,0.0,57,0.00,,,0.00,WUHU21623XXSP,2013-06-18 14:35:00,
2013-06-18 10:40:00,70.5,54.6,29.93,ENE,67,0.0,0.0,57,0.00,,,0.00,WUHU21623XXSP,2013-06-18 14:40:00,
2013-06-18 10:46:00,70.7,54.8,29.93,ENE,67,0.0,0.0,57,0.00,,,0.00,WUHU21623XXSP,2013-06-18 14:46:00,
2013-06-18 10:52:00,70.7,54.8,29.93,ENE,67,0.0,0.0,57,0.00,,,0.00,WUHU21623XXSP,2013-06-18 14:52:00,
2013-06-18 10:57:00,70.7,54.4,29.93,ENE,67,0.0,0.0,56,0.00,,,0.00,WUHU21623XXSP,2013-06-18 14:57:00,
2013-06-18 11:04:00,71.1,54.8,29.93,ENE,67,0.0,0.0,56,0.00,,,0.00,WUHU21623XXSP,2013-06-18 15:04:00,
2013-06-18 11:09:00,71.2,54.8,29.93,ENE,67,0.0,0.0,56,0.00,,,0.00,WUHU21623XXSP,2013-06-18 15:09:00,
2013-06-18 11:14:00,71.4,55.0,29.93,ENE,67,0.0,0.0,56,0.00,,,0.00,WUHU21623XXSP,2013-06-18 15:14:00,
2013-06-18 11:19:00,72.0,55.6,29.93,ENE,67,0.0,0.0,56,0.00,,,0.00,WUHU21623XXSP,2013-06-18 15:19:00,
2013-06-18 11:24:00,72.3,55.5,29.92,ENE,67,0.0,0.0,55,0.00,,,0.00,WUHU21623XXSP,2013-06-18 15:24:00,
2013-06-18 11:29:00,72.5,55.7,29.92,NE,45,0.0,0.0,55,0.00,,,0.00,WUHU21623XXSP,2013-06-18 15:29:00,
2013-06-18 11:34:00,72.7,55.4,29.92,NE,45,0.0,0.0,54,0.00,,,0.00,WUHU21623XXSP,2013-06-18 15:34:00,
2013-06-18 11:39:00,72.9,56.0,29.92,ENE,67,0.0,0.0,55,0.00,,,0.00,WUHU21623XXSP,2013-06-18 15:39:00,
2013-06-18 11:44:00,72.9,55.6,29.92,NE,45,0.0,0.0,54,0.00,,,0.00,WUHU21623XXSP,2013-06-18 15:44:00,
2013-06-18 11:50:00,73.0,55.7,29.92,NE,45,0.0,0.0,54,0.00,,,0.00,WUHU21623XXSP,2013-06-18 15:50:00,
2013-06-18 11:55:00,73.0,55.3,29.92,NE,45,0.0,0.0,54,0.00,,,0.00,WUHU21623XXSP,2013-06-18 15:55:00,
2013-06-18 12:00:00,73.2,55.5,29.93,NE,45,0.0,0.0,54,0.00,,,0.00,WUHU21623XXSP,2013-06-18 16:00:00,
2013-06-18 12:05:00,73.2,55.5,29.93,NE,45,0.0,0.0,54,0.00,,,0.00,WUHU21623XXSP,2013-06-18 16:05:00,
2013-06-18 12:12:00,73.4,55.2,29.93,NE,45,0.0,0.0,53,0.00,,,0.00,WUHU21623XXSP,2013-06-18 16:12:00,
2013-06-18 12:17:00,73.6,55.4,29.93,NE,45,0.0,0.0,53,0.00,,,0.00,WUHU21623XXSP,2013-06-18 16:17:00,
2013-06-18 12:24:00,74.1,55.9,29.93,NE,45,0.0,0.0,53,0.00,,,0.00,WUHU21623XXSP,2013-06-18 16:24:00,
2013-06-18 12:29:00,74.1,55.5,29.93,NE,45,0.0,0.0,52,0.00,,,0.00,WUHU21623XXSP,2013-06-18 16:29:00,
2013-06-18 12:35:00,74.5,56.3,29.93,NE,45,0.0,0.0,53,0.00,,,0.00,WUHU21623XXSP,2013-06-18 16:35:00,
2013-06-18 12:40:00,74.8,55.7,29.93,NE,45,0.0,0.0,51,0.00,,,0.00,WUHU21623XXSP,2013-06-18 16:40:00,
2013-06-18 12:45:00,74.8,55.7,29.93,NE,45,0.0,0.0,51,0.00,,,0.00,WUHU21623XXSP,2013-06-18 16:45:00,
2013-06-18 12:50:00,75.0,55.9,29.93,NE,45,0.0,0.0,51,0.00,,,0.00,WUHU21623XXSP,2013-06-18 16:50:00,
2013-06-18 12:55:00,75.0,55.4,29.92,North,0,0.0,0.0,50,0.00,,,0.00,WUHU21623XXSP,2013-06-18 16:55:00,
2013-06-18 13:00:00,75.0,55.4,29.92,NE,45,1.3,1.3,50,0.00,,,0.00,WUHU21623XXSP,2013-06-18 17:00:00,
2013-06-18 13:05:00,75.0,55.0,29.92,NE,45,0.0,1.3,50,0.00,,,0.00,WUHU21623XXSP,2013-06-18 17:05:00,
2013-06-18 13:10:00,74.8,54.8,29.92,NNW,337,0.0,0.0,50,0.00,,,0.00,WUHU21623XXSP,2013-06-18 17:10:00,
2013-06-18 13:15:00,74.8,55.2,29.92,NNW,337,0.0,0.0,50,0.00,,,0.00,WUHU21623XXSP,2013-06-18 17:15:00,
2013-06-18 13:20:00,74.5,54.9,29.92,NNW,337,0.0,3.8,50,0.00,,,0.00,WUHU21623XXSP,2013-06-18 17:20:00,
2013-06-18 13:25:00,74.5,55.4,29.92,NNW,337,0.0,3.8,51,0.00,,,0.00,WUHU21623XXSP,2013-06-18 17:25:00,
2013-06-18 13:30:00,74.7,55.6,29.91,NNE,22,1.6,1.6,51,0.00,,,0.00,WUHU21623XXSP,2013-06-18 17:30:00,
2013-06-18 13:35:00,75.0,55.9,29.91,NNE,22,0.0,1.6,51,0.00,,,0.00,WUHU21623XXSP,2013-06-18 17:35:00,
2013-06-18 13:40:00,75.4,56.2,29.92,NE,45,3.3,4.7,51,0.00,,,0.00,WUHU21623XXSP,2013-06-18 17:40:00,
2013-06-18 13:45:00,75.7,56.1,29.91,NE,45,0.0,4.7,50,0.00,,,0.00,WUHU21623XXSP,2013-06-18 17:45:00,
2013-06-18 13:50:00,75.9,55.8,29.92,NE,45,0.0,3.1,50,0.00,,,0.00,WUHU21623XXSP,2013-06-18 17:50:00,
2013-06-18 13:55:00,76.3,55.7,29.92,NE,45,2.2,2.2,49,0.00,,,0.00,WUHU21623XXSP,2013-06-18 17:55:00,
2013-06-18 14:01:00,76.5,55.9,29.91,NNE,22,0.0,2.2,49,0.00,,,0.00,WUHU21623XXSP,2013-06-18 18:01:00,
2013-06-18 14:06:00,76.1,55.0,29.92,NW,315,0.0,0.7,48,0.00,,,0.00,WUHU21623XXSP,2013-06-18 18:06:00,
2013-06-18 14:11:00,75.9,55.3,29.92,NW,315,0.0,0.7,49,0.00,,,0.00,WUHU21623XXSP,2013-06-18 18:11:00,
2013-06-18 14:16:00,75.4,54.9,29.92,NE,45,0.9,3.6,49,0.00,,,0.00,WUHU21623XXSP,2013-06-18 18:16:00,
2013-06-18 14:21:00,75.0,55.0,29.91,NE,45,0.0,3.6,50,0.00,,,0.00,WUHU21623XXSP,2013-06-18 18:21:00,
2013-06-18 14:26:00,74.8,54.8,29.91,NE,45,2.5,2.5,50,0.00,,,0.00,WUHU21623XXSP,2013-06-18 18:26:00,
2013-06-18 14:31:00,74.3,54.8,29.91,NE,45,0.0,2.5,50,0.00,,,0.00,WUHU21623XXSP,2013-06-18 18:31:00,
2013-06-18 14:36:00,74.1,54.1,29.91,NE,45,0.0,1.3,50,0.00,,,0.00,WUHU21623XXSP,2013-06-18 18:36:00,
2013-06-18 14:41:00,73.8,54.7,29.91,NE,45,1.9,4.0,51,0.00,,,0.00,WUHU21623XXSP,2013-06-18 18:41:00,
2013-06-18 14:46:00,73.6,54.6,29.91,NNW,337,0.0,4.0,51,0.00,,,0.00,WUHU21623XXSP,2013-06-18 18:46:00,
2013-06-18 14:51:00,73.2,54.2,29.91,NNW,337,2.5,2.5,51,0.00,,,0.00,WUHU21623XXSP,2013-06-18 18:51:00,
2013-06-18 14:57:00,73.6,54.6,29.91,NE,45,2.7,6.3,51,0.00,,,0.00,WUHU21623XXSP,2013-06-18 18:57:00,
2013-06-18 15:02:00,74.1,55.0,29.91,NW,315,0.0,6.5,51,0.00,,,0.00,WUHU21623XXSP,2013-06-18 19:02:00,
2013-06-18 15:07:00,74.8,55.2,29.91,NE,45,5.8,6.5,50,0.00,,,0.00,WUHU21623XXSP,2013-06-18 19:07:00,
2013-06-18 15:12:00,75.4,54.9,29.90,NE,45,1.6,5.8,49,0.00,,,0.00,WUHU21623XXSP,2013-06-18 19:12:00,
2013-06-18 15:17:00,75.6,55.0,29.90,NE,53,2.2,7.6,49,0.00,,,0.00,WUHU21623XXSP,2013-06-18 19:17:00,
2013-06-18 15:22:00,75.7,55.1,29.90,ENE,67,0.0,7.6,49,0.00,,,0.00,WUHU21623XXSP,2013-06-18 19:22:00,
2013-06-18 15:27:00,75.7,55.1,29.90,North,354,2.0,4.5,49,0.00,,,0.00,WUHU21623XXSP,2013-06-18 19:27:00,
2013-06-18 15:32:00,75.4,54.9,29.90,NW,315,0.0,5.6,49,0.00,,,0.00,WUHU21623XXSP,2013-06-18 19:32:00,
2013-06-18 15:37:00,75.0,54.5,29.90,ENE,67,5.1,6.5,49,0.00,,,0.00,WUHU21623XXSP,2013-06-18 19:37:00,
2013-06-18 15:42:00,74.7,54.2,29.90,NE,45,1.5,6.5,49,0.00,,,0.00,WUHU21623XXSP,2013-06-18 19:42:00,
2013-06-18 15:47:00,74.1,54.1,29.89,NE,45,1.3,4.9,50,0.00,,,0.00,WUHU21623XXSP,2013-06-18 19:47:00,
2013-06-18 15:52:00,74.1,54.6,29.89,NE,45,1.8,4.9,50,0.00,,,0.00,WUHU21623XXSP,2013-06-18 19:52:00,
2013-06-18 15:57:00,74.3,54.3,29.89,NE,45,3.2,5.1,50,0.00,,,0.00,WUHU21623XXSP,2013-06-18 19:57:00,
2013-06-18 16:02:00,74.3,53.8,29.89,NE,35,2.3,5.6,49,0.00,,,0.00,WUHU21623XXSP,2013-06-18 20:02:00,
2013-06-18 16:08:00,75.0,55.4,29.89,North,11,2.5,5.6,50,0.00,,,0.00,WUHU21623XXSP,2013-06-18 20:08:00,
2013-06-18 16:13:00,75.9,55.3,29.89,NE,45,0.9,9.4,49,0.00,,,0.00,WUHU21623XXSP,2013-06-18 20:13:00,
2013-06-18 16:18:00,77.0,55.4,29.89,WSW,247,0.0,9.4,47,0.00,,,0.00,WUHU21623XXSP,2013-06-18 20:18:00,
2013-06-18 16:23:00,77.5,55.8,29.89,WSW,247,4.3,6.5,47,0.00,,,0.00,WUHU21623XXSP,2013-06-18 20:23:00,
2013-06-18 16:28:00,77.9,55.7,29.89,NE,49,1.6,7.4,46,0.00,,,0.00,WUHU21623XXSP,2013-06-18 20:28:00,
2013-06-18 16:33:00,77.5,55.4,29.88,NE,45,1.1,7.8,46,0.00,,,0.00,WUHU21623XXSP,2013-06-18 20:33:00,
2013-06-18 16:38:00,77.4,55.8,29.88,NE,45,2.9,7.8,47,0.00,,,0.00,WUHU21623XXSP,2013-06-18 20:38:00,
2013-06-18 16:44:00,77.5,55.4,29.88,NE,45,0.0,5.6,46,0.00,,,0.00,WUHU21623XXSP,2013-06-18 20:44:00,
2013-06-18 16:49:00,77.2,55.1,29.88,ENE,67,4.6,4.7,46,0.00,,,0.00,WUHU21623XXSP,2013-06-18 20:49:00,
2013-06-18 16:54:00,76.8,55.2,29.88,NNE,22,0.0,5.1,47,0.00,,,0.00,WUHU21623XXSP,2013-06-18 20:54:00,
2013-06-18 17:00:00,76.3,54.7,29.89,NE,55,2.7,7.4,47,0.00,,,0.00,WUHU21623XXSP,2013-06-18 21:00:00,
2013-06-18 17:05:00,75.7,54.2,29.88,NE,39,1.4,7.4,47,0.00,,,0.00,WUHU21623XXSP,2013-06-18 21:05:00,
2013-06-18 17:10:00,75.4,54.4,29.89,NE,45,0.0,2.0,48,0.00,,,0.00,WUHU21623XXSP,2013-06-18 21:10:00,
2013-06-18 17:15:00,75.0,55.0,29.89,NNE,22,0.0,0.0,50,0.00,,,0.00,WUHU21623XXSP,2013-06-18 21:15:00,
2013-06-18 17:20:00,75.0,55.0,29.89,NE,45,0.0,0.0,50,0.00,,,0.00,WUHU21623XXSP,2013-06-18 21:20:00,
2013-06-18 17:25:00,74.5,54.5,29.89,NE,45,0.0,0.0,50,0.00,,,0.00,WUHU21623XXSP,2013-06-18 21:25:00,
2013-06-18 17:30:00,73.9,54.4,29.89,NE,45,0.0,0.0,50,0.00,,,0.00,WUHU21623XXSP,2013-06-18 21:30:00,
2013-06-18 17:35:00,73.2,53.7,29.90,NE,52,13.1,17.7,50,0.00,,,0.00,WUHU21623XXSP,2013-06-18 21:35:00,
2013-06-18 17:40:00,71.2,52.8,29.89,NE,49,6.1,17.7,52,0.00,,,0.00,WUHU21623XXSP,2013-06-18 21:40:00,
2013-06-18 17:45:00,68.5,51.5,29.89,NE,51,1.9,16.3,54,0.00,,,0.00,WUHU21623XXSP,2013-06-18 21:45:00,
2013-06-18 17:50:00,67.1,51.8,29.89,WSW,247,0.0,10.5,58,0.00,,,0.00,WUHU21623XXSP,2013-06-18 21:50:00,
2013-06-18 17:56:00,67.3,53.1,29.88,NE,45,0.0,7.8,60,0.00,,,0.00,WUHU21623XXSP,2013-06-18 21:56:00,
2013-06-18 18:01:00,68.7,54.4,29.88,WSW,247,1.5,4.0,60,0.00,,,0.00,WUHU21623XXSP,2013-06-18 22:01:00,
2013-06-18 18:06:00,70.9,56.5,29.88,WSW,247,0.0,4.0,60,0.00,,,0.00,WUHU21623XXSP,2013-06-18 22:06:00,
2013-06-18 18:11:00,72.7,57.4,29.89,WSW,247,0.0,3.6,58,0.00,,,0.00,WUHU21623XXSP,2013-06-18 22:11:00,
2013-06-18 18:16:00,73.8,57.7,29.88,NE,45,1.1,4.7,57,0.00,,,0.00,WUHU21623XXSP,2013-06-18 22:16:00,
2013-06-18 18:21:00,73.8,57.7,29.88,WSW,247,0.0,4.7,57,0.00,,,0.00,WUHU21623XXSP,2013-06-18 22:21:00,
2013-06-18 18:26:00,75.0,58.8,29.89,NE,45,0.0,5.6,57,0.00,,,0.00,WUHU21623XXSP,2013-06-18 22:26:00,
2013-06-18 18:31:00,75.4,58.4,29.89,NE,45,0.0,5.6,55,0.00,,,0.00,WUHU21623XXSP,2013-06-18 22:31:00,
2013-06-18 18:36:00,74.8,57.4,29.89,NE,45,0.0,0.0,54,0.00,,,0.00,WUHU21623XXSP,2013-06-18 22:36:00,
2013-06-18 18:41:00,73.8,56.9,29.89,NE,45,0.0,0.0,55,0.00,,,0.00,WUHU21623XXSP,2013-06-18 22:41:00,
2013-06-18 18:46:00,72.7,56.7,29.89,NE,45,0.0,0.0,57,0.00,,,0.00,WUHU21623XXSP,2013-06-18 22:46:00,
2013-06-18 18:51:00,72.0,56.4,29.89,NE,45,0.0,0.0,58,0.00,,,0.00,WUHU21623XXSP,2013-06-18 22:51:00,
2013-06-18 18:56:00,71.2,56.0,29.89,NE,45,0.0,0.0,58,0.00,,,0.00,WUHU21623XXSP,2013-06-18 22:56:00,
2013-06-18 19:01:00,70.7,55.9,29.89,NE,45,0.0,0.0,59,0.00,,,0.00,WUHU21623XXSP,2013-06-18 23:01:00,
2013-06-18 19:06:00,70.3,55.9,29.89,NE,45,0.0,0.0,60,0.00,,,0.00,WUHU21623XXSP,2013-06-18 23:06:00,
2013-06-18 19:11:00,70.0,55.7,29.90,NE,45,0.0,0.0,60,0.00,,,0.00,WUHU21623XXSP,2013-06-18 23:11:00,
2013-06-18 19:16:00,69.6,55.6,29.90,NE,45,0.0,0.0,61,0.00,,,0.00,WUHU21623XXSP,2013-06-18 23:16:00,
2013-06-18 19:21:00,69.4,55.8,29.90,NE,45,0.0,0.0,62,0.00,,,0.00,WUHU21623XXSP,2013-06-18 23:21:00,
2013-06-18 19:26:00,69.1,55.5,29.90,NE,45,0.0,0.0,62,0.00,,,0.00,WUHU21623XXSP,2013-06-18 23:26:00,
2013-06-18 19:31:00,68.7,55.5,29.90,NE,45,0.0,0.0,62,0.00,,,0.00,WUHU21623XXSP,2013-06-18 23:31:00,
2013-06-18 19:36:00,68.4,55.2,29.90,NE,45,0.0,0.0,62,0.00,,,0.00,WUHU21623XXSP,2013-06-18 23:36:00,
2013-06-18 19:43:00,68.2,55.4,29.90,NE,45,0.0,0.0,63,0.00,,,0.00,WUHU21623XXSP,2013-06-18 23:43:00,
2013-06-18 19:48:00,67.8,55.0,29.90,NE,45,0.0,0.0,63,0.00,,,0.00,WUHU21623XXSP,2013-06-18 23:48:00,
2013-06-18 19:54:00,67.6,54.8,29.90,NE,45,0.0,0.0,63,0.00,,,0.00,WUHU21623XXSP,2013-06-18 23:54:00,
2013-06-18 19:59:00,67.5,55.1,29.91,NE,45,0.0,0.0,64,0.00,,,0.00,WUHU21623XXSP,2013-06-18 23:59:00,
2013-06-18 20:04:00,67.3,54.9,29.91,NNE,22,0.0,0.0,64,0.00,,,0.00,WUHU21623XXSP,2013-06-19 00:04:00,
2013-06-18 20:09:00,66.7,54.3,29.91,SW,233,3.4,5.6,64,0.00,,,0.00,WUHU21623XXSP,2013-06-19 00:09:00,
2013-06-18 20:14:00,66.4,54.0,29.91,WSW,247,0.0,5.6,64,0.00,,,0.00,WUHU21623XXSP,2013-06-19 00:14:00,
2013-06-18 20:20:00,66.0,53.6,29.91,SW,232,3.3,4.5,64,0.00,,,0.00,WUHU21623XXSP,2013-06-19 00:20:00,
2013-06-18 20:25:00,65.5,53.5,29.91,SW,225,0.0,4.5,65,0.00,,,0.00,WUHU21623XXSP,2013-06-19 00:25:00,
2013-06-18 20:30:00,65.1,53.1,29.91,SW,225,0.0,2.9,65,0.00,,,0.00,WUHU21623XXSP,2013-06-19 00:30:00,
2013-06-18 20:36:00,64.6,53.0,29.92,SW,225,3.4,3.4,66,0.00,,,0.00,WUHU21623XXSP,2013-06-19 00:36:00,
2013-06-18 20:42:00,64.2,52.9,29.92,West,270,0.8,4.0,66,0.00,,,0.00,WUHU21623XXSP,2013-06-19 00:42:00,
2013-06-18 20:47:00,64.0,53.1,29.92,SW,225,0.0,4.0,67,0.00,,,0.00,WUHU21623XXSP,2013-06-19 00:47:00,
2013-06-18 20:52:00,63.7,52.8,29.93,NE,40,3.7,8.5,67,0.00,,,0.00,WUHU21623XXSP,2013-06-19 00:52:00,
2013-06-18 20:57:00,63.3,52.7,29.93,NE,50,6.2,8.5,68,0.00,,,0.00,WUHU21623XXSP,2013-06-19 00:57:00,
2013-06-18 21:02:00,63.0,52.4,29.93,NE,45,0.0,8.5,68,0.00,,,0.00,WUHU21623XXSP,2013-06-19 01:02:00,
2013-06-18 21:07:00,62.8,52.2,29.93,NE,45,0.0,0.0,68,0.00,,,0.00,WUHU21623XXSP,2013-06-19 01:07:00,
2013-06-18 21:12:00,62.4,51.9,29.93,NE,45,0.0,0.0,68,0.00,,,0.00,WUHU21623XXSP,2013-06-19 01:12:00,
2013-06-18 21:17:00,62.2,51.7,29.94,NE,45,0.0,0.0,68,0.00,,,0.00,WUHU21623XXSP,2013-06-19 01:17:00,
2013-06-18 21:22:00,62.1,51.6,29.93,ENE,67,0.0,0.7,68,0.00,,,0.00,WUHU21623XXSP,2013-06-19 01:22:00,
2013-06-18 21:27:00,61.9,51.4,29.93,NE,45,0.0,0.7,68,0.00,,,0.00,WUHU21623XXSP,2013-06-19 01:27:00,
2013-06-18 21:32:00,61.7,51.2,29.93,NE,45,0.0,3.6,68,0.00,,,0.00,WUHU21623XXSP,2013-06-19 01:32:00,
2013-06-18 21:37:00,61.5,51.3,29.94,NE,45,0.0,3.6,69,0.00,,,0.00,WUHU21623XXSP,2013-06-19 01:37:00,
2013-06-18 21:42:00,61.5,51.3,29.94,NE,45,0.0,0.0,69,0.00,,,0.00,WUHU21623XXSP,2013-06-19 01:42:00,
2013-06-18 21:48:00,61.5,51.3,29.94,NE,45,0.0,0.0,69,0.00,,,0.00,WUHU21623XXSP,2013-06-19 01:48:00,
2013-06-18 21:55:00,61.5,51.6,29.94,NE,45,0.0,2.7,70,0.00,,,0.00,WUHU21623XXSP,2013-06-19 01:55:00,
2013-06-18 22:01:00,61.5,51.6,29.95,NE,45,0.0,2.7,70,0.00,,,0.00,WUHU21623XXSP,2013-06-19 02:01:00,
2013-06-18 22:06:00,61.5,51.6,29.95,ENE,67,0.0,2.9,70,0.00,,,0.00,WUHU21623XXSP,2013-06-19 02:06:00,
2013-06-18 22:11:00,61.5,51.6,29.95,NE,45,2.4,4.7,70,0.00,,,0.00,WUHU21623XXSP,2013-06-19 02:11:00,
2013-06-18 22:16:00,61.5,51.6,29.96,NE,45,3.5,7.6,70,0.00,,,0.00,WUHU21623XXSP,2013-06-19 02:16:00,
2013-06-18 22:21:00,61.5,51.3,29.95,NE,45,4.2,8.3,69,0.00,,,0.00,WUHU21623XXSP,2013-06-19 02:21:00,
2013-06-18 22:26:00,61.3,51.1,29.96,NE,45,0.0,8.3,69,0.00,,,0.00,WUHU21623XXSP,2013-06-19 02:26:00,
2013-06-18 22:31:00,61.0,50.8,29.96,NE,45,0.0,6.0,69,0.00,,,0.00,WUHU21623XXSP,2013-06-19 02:31:00,
2013-06-18 22:36:00,60.8,50.6,29.96,ENE,67,2.0,6.0,69,0.00,,,0.00,WUHU21623XXSP,2013-06-19 02:36:00,
2013-06-18 22:41:00,60.6,50.4,29.96,NE,45,1.6,2.7,69,0.00,,,0.00,WUHU21623XXSP,2013-06-19 02:41:00,
2013-06-18 22:46:00,60.6,50.4,29.97,ENE,67,5.6,5.6,69,0.00,,,0.00,WUHU21623XXSP,2013-06-19 02:46:00,
2013-06-18 22:51:00,60.4,50.2,29.97,NE,45,0.0,5.6,69,0.00,,,0.00,WUHU21623XXSP,2013-06-19 02:51:00,
2013-06-18 22:56:00,60.6,50.7,29.97,ENE,67,0.0,3.1,70,0.00,,,0.00,WUHU21623XXSP,2013-06-19 02:56:00,
2013-06-18 23:02:00,60.6,50.7,29.97,ENE,67,0.0,0.7,70,0.00,,,0.00,WUHU21623XXSP,2013-06-19 03:02:00,
2013-06-18 23:07:00,60.6,50.7,29.97,ENE,67,0.0,1.3,70,0.00,,,0.00,WUHU21623XXSP,2013-06-19 03:07:00,
2013-06-18 23:12:00,60.4,50.6,29.97,NE,45,0.0,1.3,70,0.00,,,0.00,WUHU21623XXSP,2013-06-19 03:12:00,
2013-06-18 23:17:00,60.4,50.6,29.97,NE,45,0.0,4.7,70,0.00,,,0.00,WUHU21623XXSP,2013-06-19 03:17:00,
2013-06-18 23:22:00,60.4,50.6,29.97,NE,45,1.1,4.7,70,0.00,,,0.00,WUHU21623XXSP,2013-06-19 03:22:00,
2013-06-18 23:27:00,60.1,50.3,29.97,NE,45,0.0,1.1,70,0.00,,,0.00,WUHU21623XXSP,2013-06-19 03:27:00,
2013-06-18 23:32:00,60.1,50.3,29.96,NNE,22,0.0,0.0,70,0.00,,,0.00,WUHU21623XXSP,2013-06-19 03:32:00,
2013-06-18 23:37:00,59.9,50.1,29.96,NNE,22,0.0,2.2,70,0.00,,,0.00,WUHU21623XXSP,2013-06-19 03:37:00,
2013-06-18 23:42:00,59.9,50.1,29.97,NNE,22,0.0,2.2,70,0.00,,,0.00,WUHU21623XXSP,2013-06-19 03:42:00,
2013-06-18 23:47:00,59.7,49.9,29.97,ENE,67,0.0,0.0,70,0.00,,,0.00,WUHU21623XXSP,2013-06-19 03:47:00,
2013-06-18 23:52:00,59.7,49.9,29.97,NE,45,0.0,0.0,70,0.00,,,0.00,WUHU21623XXSP,2013-06-19 03:52:00,
2013-06-18 23:57:00,59.5,49.7,29.97,NE,45,0.0,0.0,70,0.00,,,0.00,WUHU21623XXSP,2013-06-19 03:57:00,